Location: Brisbane
(27.5000°S, 153.0170°E)
Time: 19:23:08
(UTC+10:00)

ISS - Visible Passes

Search period start: 21 February 2018 00:00
Search period end: 03 March 2018 00:00
Orbit: 402 x 407 km, 51.6° (Epoch: 21 February)

Date Brightness Start Highest point End Pass type
(mag) Time Alt. Az. Time Alt. Az. Time Alt. Az.
21 Feb -3.1 03:52:09 55° ESE 03:52:09 55° ESE 03:55:06 10° NE visible
21 Feb -3.7 18:46:40 10° NNW 18:49:54 56° NE 18:53:09 10° SE visible
21 Feb -0.4 20:25:47 10° SW 20:26:37 11° SW 20:27:27 10° SSW visible
22 Feb -1.5 04:37:36 12° NNW 04:37:36 12° NNW 04:38:03 10° NNW visible
22 Feb -1.0 19:31:40 10° W 19:34:11 20° SW 19:36:43 10° S visible
